Tracking 17925 objects as of 24-January-2017
HD Live streaming from Space Station
objects crossing your sky now

MERIDIAN 3

Track MERIDIAN 3 now!
MERIDIAN 3 is classified as:


NORAD ID: 37212
Int'l Code: 2010-058A
Perigee: 1,865.8 km
Apogee: 38,506.5 km
Inclination: 63.1 °
Period: 717.8 minutes
Semi major axis: 26557 km
RCS: 24.3984 m2 (large)
Launch date: November 2, 2010
Source: Commonwealth of Independent States (former USSR) (CIS)
Launch site: PLESETSK MISSILE AND SPACE COMPLEX (PKMTR)

MERIDIAN 3 is a Russian military communications satellite.
Your satellite tracking list
Your tracking list is empty





NASA's NSSDC Master Catalog

Two Line Element Set (TLE):
1 37212U 10058A   17022.73699063  .00000066  00000-0  10000-3 0  9990
2 37212  63.0999  91.7175 6898474 274.1458  18.0682  2.00608512 45592
Source of the keplerian elements: AFSPC